Weather History for Huntsville Madison, AL

Change the Weather History Date:

Monday, December 16, 2013

  Actual Average (KHSV) Record (KHSV)
Temperature  
Mean Temperature 40 °F 44 °F  
Max Temperature 53 °F 53 °F 73 °F (1984)
Min Temperature 28 °F 34 °F 6 °F (1989)
Degree Days  
Heating Degree Days 24 21  
Month to date heating degree days 315  
Since 1 July heating degree days 842  
Cooling Degree Days 0 0  
Month to date cooling degree days 0  
Year to date cooling degree days 1949  
Moisture  
Dew Point 28 °F    
Average Humidity 62    
Maximum Humidity 93    
Minimum Humidity 30    
Precipitation  
Precipitation 0.00 in 0.19 in 2.46 in (2012)
Month to date precipitation 3.15  
Year to date precipitation 51.72  
Snow  
Snow 0.00 in - - ()
Month to date snowfall  
Since 1 July snowfall  
Snow Depth -    
Sea Level Pressure  
Sea Level Pressure 30.20 in    
Wind  
Wind Speed 6 mph (SSW)    
Max Wind Speed 14 mph    
Max Gust Speed 18 mph    
Visibility 8 miles    
Events      
T = Trace of Precipitation, MM = Missing Value Source: NWS Daily Summary

Daily Weather History Graph

Daily Weather History Graph

Search for Another Location

Airport:

Trip Planner

Search our weather history database for the weather conditions in past years. The results will help you decide how hot, cold, wet, or windy it might be!

Date:

Astronomy

Dec. 16, 2013 Rise Set
Actual Time 6:47 AM CST 4:36 PM CST
Civil Twilight 6:19 AM CST 5:04 PM CST
Nautical Twilight 5:47 AM CST 5:36 PM CST
Astronomical Twilight 5:16 AM CST 6:07 PM CST
Moon 4:24 PM CST (12/16) 5:57 AM CST (12/16)
Length of Visible Light 10h 45m
Length of Day
9h 49m
Full, 100% of the Moon is Illuminated
Dec 16
Full
Dec 17
Full
Dec 25
Last Quarter
Jan 1
New
Jan 7
First Quarter

Hourly Weather History & Observations

Time (CST) Temp. Windchill Dew Point Humidity Pressure Visibility Wind Dir Wind Speed Gust Speed Precip Events Conditions
12:15 AM 32.0 °F 28.7 °F 26.6 °F 80% 30.23 in 10.0 mi South 3.5 mph - N/A   Scattered Clouds
12:35 AM 30.2 °F 26.7 °F 26.6 °F 86% 30.23 in 7.0 mi SSW 3.5 mph - N/A   Scattered Clouds
12:55 AM 32.0 °F 26.4 °F 26.6 °F 80% 30.23 in 5.0 mi SSW 5.8 mph - N/A   Haze
4:15 AM 30.2 °F 25.4 °F 26.6 °F 86% 30.23 in 4.0 mi South 4.6 mph - N/A   Clear
4:35 AM 30.2 °F 26.7 °F 26.6 °F 86% 30.23 in 4.0 mi South 3.5 mph - N/A   Clear
4:55 AM 30.2 °F - 26.6 °F 86% 30.24 in 4.0 mi Calm Calm - N/A   Clear
5:15 AM 28.4 °F 24.6 °F 24.8 °F 86% 30.24 in 4.0 mi SSE 3.5 mph - N/A   Clear
5:35 AM 28.4 °F - 24.8 °F 86% 30.24 in 4.0 mi Calm Calm - N/A   Clear
5:55 AM 28.4 °F 24.6 °F 26.6 °F 93% 30.24 in 4.0 mi SE 3.5 mph - N/A   Clear
6:15 AM 28.4 °F 24.6 °F 26.6 °F 93% 30.24 in 4.0 mi SE 3.5 mph - N/A   Clear
6:35 AM 28.4 °F 23.3 °F 24.8 °F 86% 30.24 in 4.0 mi SE 4.6 mph - N/A   Clear
6:55 AM 28.4 °F 24.6 °F 26.6 °F 93% 30.25 in 3.0 mi SE 3.5 mph - N/A   Mist
7:15 AM 28.4 °F 23.3 °F 26.6 °F 93% 30.25 in 3.0 mi SSE 4.6 mph - N/A   Mist
7:35 AM 30.2 °F 26.7 °F 26.6 °F 86% 30.25 in 3.0 mi SE 3.5 mph - N/A   Mist
7:55 AM 30.2 °F 25.4 °F 26.6 °F 86% 30.25 in 3.0 mi SE 4.6 mph - N/A   Mist
8:15 AM 32.0 °F 28.7 °F 26.6 °F 80% 30.25 in 4.0 mi SE 3.5 mph - N/A   Haze
8:35 AM 32.0 °F 26.4 °F 28.4 °F 87% 30.26 in 4.0 mi SSE 5.8 mph - N/A   Haze
8:55 AM 33.8 °F 29.6 °F 28.4 °F 81% 30.27 in 5.0 mi South 4.6 mph - N/A   Haze
9:15 AM 35.6 °F 29.2 °F 28.4 °F 75% 30.27 in 7.0 mi South 8.1 mph - N/A   Clear
9:35 AM 37.4 °F 32.1 °F 28.4 °F 70% 30.27 in 10.0 mi South 6.9 mph - N/A   Clear
9:55 AM 39.2 °F 34.2 °F 28.4 °F 65% 30.26 in 10.0 mi South 6.9 mph - N/A   Clear
10:15 AM 41.0 °F 38.0 °F 28.4 °F 61% 30.26 in 7.0 mi SSW 4.6 mph - N/A   Clear
10:35 AM 42.8 °F 38.6 °F 30.2 °F 61% 30.25 in 10.0 mi SSW 6.9 mph - N/A   Clear
10:55 AM 42.8 °F 37.5 °F 30.2 °F 61% 30.23 in 10.0 mi SSW 9.2 mph - N/A   Clear
11:15 AM 44.6 °F 40.2 °F 30.2 °F 57% 30.22 in 10.0 mi SSW 8.1 mph - N/A   Clear
11:35 AM 44.6 °F 40.2 °F 30.2 °F 57% 30.21 in 10.0 mi SSW 8.1 mph - N/A   Clear
11:55 AM 46.4 °F 41.9 °F 30.2 °F 53% 30.20 in 10.0 mi WSW 9.2 mph 18.4 mph N/A   Clear
12:15 PM 48.2 °F - 30.2 °F 50% 30.19 in 10.0 mi SW 12.7 mph - N/A   Clear
12:35 PM 50.0 °F - 30.2 °F 47% 30.18 in 10.0 mi WSW 11.5 mph - N/A   Clear
12:55 PM 50.0 °F - 30.2 °F 47% 30.17 in 10.0 mi WSW 8.1 mph 16.1 mph N/A   Clear
1:15 PM 50.0 °F - 28.4 °F 43% 30.16 in 10.0 mi SW 9.2 mph 16.1 mph N/A   Clear
1:35 PM 51.8 °F - 28.4 °F 41% 30.16 in 10.0 mi SW 13.8 mph - N/A   Clear
1:55 PM 51.8 °F - 28.4 °F 41% 30.15 in 10.0 mi WSW 10.4 mph - N/A   Clear
2:15 PM 53.6 °F - 28.4 °F 38% 30.15 in 10.0 mi SW 8.1 mph - N/A   Clear
2:35 PM 53.6 °F - 28.4 °F 38% 30.15 in 10.0 mi SW 9.2 mph - N/A   Clear
2:55 PM 53.6 °F - 24.8 °F 33% 30.15 in 10.0 mi SW 11.5 mph - N/A   Clear
3:15 PM 53.6 °F - 23.0 °F 30% 30.16 in 10.0 mi SW 11.5 mph - N/A   Clear
3:35 PM 53.6 °F - 23.0 °F 30% 30.15 in 10.0 mi SW 8.1 mph - N/A   Clear
3:55 PM 51.8 °F - 23.0 °F 33% 30.15 in 10.0 mi SW 9.2 mph - N/A   Clear
4:15 PM 51.8 °F - 26.6 °F 38% 30.15 in 10.0 mi SW 6.9 mph - N/A   Clear
4:35 PM 48.2 °F - 26.6 °F 43% 30.16 in 10.0 mi SW 6.9 mph - N/A   Clear
4:55 PM 44.6 °F 41.4 °F 26.6 °F 49% 30.17 in 10.0 mi SW 5.8 mph - N/A   Clear
5:15 PM 44.6 °F 40.7 °F 26.6 °F 49% 30.17 in 10.0 mi SSW 6.9 mph - N/A   Clear
5:35 PM 44.6 °F 42.2 °F 28.4 °F 53% 30.17 in 10.0 mi SSW 4.6 mph - N/A   Clear
5:55 PM 42.8 °F 40.1 °F 28.4 °F 57% 30.17 in 10.0 mi South 4.6 mph - N/A   Clear
6:15 PM 42.8 °F 41.1 °F 28.4 °F 57% 30.18 in 10.0 mi South 3.5 mph - N/A   Clear
6:35 PM 44.6 °F 40.2 °F 28.4 °F 53% 30.19 in 10.0 mi SSW 8.1 mph - N/A   Clear
6:55 PM 44.6 °F 42.2 °F 28.4 °F 53% 30.19 in 10.0 mi South 4.6 mph - N/A   Clear
7:15 PM 44.6 °F 42.2 °F 28.4 °F 53% 30.19 in 10.0 mi South 4.6 mph - N/A   Clear
7:35 PM 44.6 °F 40.7 °F 28.4 °F 53% 30.20 in 10.0 mi SSW 6.9 mph - N/A   Clear
7:55 PM 44.6 °F 40.2 °F 28.4 °F 53% 30.19 in 10.0 mi SSW 8.1 mph - N/A   Clear
8:15 PM 42.8 °F 38.6 °F 28.4 °F 57% 30.19 in 10.0 mi SSW 6.9 mph - N/A   Clear
8:35 PM 42.8 °F 38.6 °F 26.6 °F 53% 30.19 in 10.0 mi SSW 6.9 mph - N/A   Clear
8:55 PM 41.0 °F 36.4 °F 26.6 °F 57% 30.19 in 10.0 mi SSW 6.9 mph - N/A   Clear
9:15 PM 41.0 °F 37.1 °F 28.4 °F 61% 30.19 in 10.0 mi SSW 5.8 mph - N/A   Clear
9:35 PM 41.0 °F 36.4 °F 28.4 °F 61% 30.19 in 10.0 mi SSW 6.9 mph - N/A   Clear
9:55 PM 41.0 °F 36.4 °F 28.4 °F 61% 30.19 in 10.0 mi SSW 6.9 mph - N/A   Clear
10:15 PM 42.8 °F 38.6 °F 28.4 °F 57% 30.19 in 10.0 mi SSW 6.9 mph - N/A   Clear
10:35 PM 42.8 °F 40.1 °F 26.6 °F 53% 30.19 in 10.0 mi South 4.6 mph - N/A   Clear
10:55 PM 42.8 °F 39.3 °F 28.4 °F 57% 30.20 in 10.0 mi South 5.8 mph - N/A   Clear
11:15 PM 42.8 °F 40.1 °F 28.4 °F 57% 30.20 in 10.0 mi South 4.6 mph - N/A   Clear
11:55 PM 41.0 °F 35.8 °F 28.4 °F 61% 30.19 in 10.0 mi South 8.1 mph - N/A   Clear